Weather Roundup
Issued by NWS Springfield, MO

Home | Current Version | Previous Version | Text Only | Print | Product List | Glossary On
Versions: 1 2 3 4 5 6 7 8 9 10 11 12 13 14 15 16 17 18 19 20 21 22 23 24 25 26 27 28 29 30 31 32 33 34 35 36 37 38 39 40 41 42 43 44 45 46 47 48 49 50
000
NZUS99 KSGF 080807
HRRSGF

HOURLY WEATHER
NATIONAL WEATHER SERVICE SPRINGFIELD MO
200 AM CST MON FEB 08 2016

......SGF CWA......

CITY           SKY/WX    TMP DP  RH WIND       PRES   REMARKS
SPRINGFIELD    CLOUDY    39  21  48 W14G21    29.97F WCI  31
JOPLIN         CLEAR     36  21  54 W15G23    30.06F WCI  27
WEST PLAINS    MOCLDY    37  21  52 W16G26    29.92F WCI  28
ROLLA          LGT SNOW  33  29  85 W17G26    29.86S FOG     WCI  22
OSAGE BEACH    CLOUDY    37  19  48 W15G23    29.93S WCI  28
BRANSON        PTCLDY    37  19  48 W8        30.00F WCI  31

......SURROUNDING SGF CWA......

CITY           SKY/WX    TMP DP  RH WIND       PRES   REMARKS
CHANUTE        CLEAR     37  20  50 NW16G25   30.09F WCI  28
PARSONS        CLEAR     37  20  50 NW14G25   30.11F WCI  28
COFFEYVILLE    CLEAR     39  20  46 NW18      30.13F WCI  30
EMPORIA        CLEAR     35  17  47 NW25G36   30.10S WCI  23
GROVE OK       CLEAR     39  23  52 W9        30.12S WCI  33
ROGERS AR      CLEAR     37  20  50 W14G23    30.05F WCI  28
SILOAM SPRINGS CLEAR     37  16  41 NW14      30.09F WCI  29
HARRISON AR    CLEAR     38  19  46 NW16G24   29.99F WCI  29
NEAR YELLVILLE CLEAR     41  18  38 NW10      29.98F

......KANSAS AND MISSOURI......

CITY           SKY/WX    TMP DP  RH WIND       PRES   REMARKS
KANSAS CTY INT CLOUDY    34  22  61 NW25G36   29.99R WCI  21
DOWNTOWN KC    CLOUDY    37  20  50 NW26G43   29.98F WCI  25
COLUMBIA       CLOUDY    34  25  69 W20G31    29.87S WCI  23
SEDALIA        CLOUDY    36  27  69 W14       29.93F WCI  27
ST JOSEPH      MOCLDY    33  21  61 NW21G32   30.00S WCI  21
ST LOUIS       MOCLDY    38  29  70 W13       29.82F WCI  30
SPIRIT OF STL  CLOUDY    38  28  67 W8        29.82F WCI  32
KIRKSVILLE     CLOUDY    30  21  69 NW14G23   29.83F WCI  19
WICHITA        CLEAR     38  17  42 NW21G30   30.20S WCI  28
TOPEKA         CLOUDY    38  17  42 NW22G38   30.06F WCI  27
OLATHE         CLOUDY    35  19  52 N22G43    30.00S WCI  23

......TENNESSEE......

CITY           SKY/WX    TMP DP  RH WIND       PRES   REMARKS
MEMPHIS        CLOUDY    47  30  51 NW12      29.94S
NASHVILLE      CLOUDY    47  27  45 W7        29.84F

......ARKANSAS.......

CITY           SKY/WX    TMP DP  RH WIND       PRES   REMARKS
FAYETTEVILLE   CLEAR     38  20  48 W13       30.08F WCI  30
FT SMITH       CLEAR     43  20  39 W13       30.12S
LITTLE ROCK    CLOUDY    49  21  33 NW17      30.03S

......OKLAHOMA.......

CITY           SKY/WX    TMP DP  RH WIND       PRES   REMARKS
TULSA          PTCLDY    41  21  44 NW17G25   30.17S
PONCA CITY     CLEAR     35  21  56 NW10      30.22F WCI  27
MCALESTER      PTCLDY    44  18  35 NW10      30.21S
OKLAHOMA CITY  MOCLDY    42  16  34 NW20G25   30.27F

......IOWA............

CITY           SKY/WX    TMP DP  RH WIND       PRES   REMARKS
DES MOINES     FLURRIES  25  16  68 NW23G31   29.87S WCI  10
QUAD CITIES    CLOUDY    32  25  75 NW20G26   29.70S WCI  20

......ILLINOIS........

CITY           SKY/WX    TMP DP  RH WIND       PRES   REMARKS
QUINCY         CLOUDY    34  30  85 W16G25    29.78F WCI  24
CHICAGO        PTCLDY    31  26  82 SW9       29.64F WCI  23




USA.gov is the U.S. government's official web portal to all federal, state and local government web resources and services.